Torna al catalogo

STARLINK-35288

AttivoComunicazioniVLEO
NORAD 65749·PAYLOAD·🇺🇸 United States

Lanciato Sep 25, 2025 da Cape Canaveral Space Force Station

Loading…

Prossimi Passaggi (prossime 24 ore)

TLE

AggiornatoSource: CelesTrak SupGP

Epoca: Sep 14, 2026, 21:19 UTC

1 65749C 25216R   26257.88868056 -.00018410  00000+0 -54375-3 0  2577
2 65749  53.1573 171.9024 0001382 107.1347 177.3965 15.34409133    10

Traccia STARLINK-35288 in tempo reale con AllMySat

Download on the App Store